TimeCDT,TemperatureF,Dew PointF,Humidity,Sea Level PressureIn,VisibilityMPH,Wind Direction,Wind SpeedMPH,Gust SpeedMPH,PrecipitationIn,Events,Conditions,WindDirDegrees,DateUTC
12:53 AM,61.0,57.0,87,29.88,10.0,East,12.7,-,0.02,Rain,Light Rain,100,2013-05-04 05:53:00
1:53 AM,60.1,57.0,90,29.87,10.0,East,11.5,-,0.00,Rain,Light Rain,90,2013-05-04 06:53:00
2:53 AM,60.1,57.0,90,29.87,10.0,East,12.7,-,0.01,,Mostly Cloudy,90,2013-05-04 07:53:00
3:53 AM,60.1,57.0,90,29.87,10.0,East,11.5,-,N/A,,Scattered Clouds,90,2013-05-04 08:53:00
4:53 AM,60.1,57.0,90,29.86,10.0,East,11.5,-,N/A,,Clear,90,2013-05-04 09:53:00
5:53 AM,59.0,55.9,90,29.87,10.0,East,10.4,-,N/A,,Clear,90,2013-05-04 10:53:00
6:53 AM,60.1,55.9,86,29.89,10.0,East,11.5,-,N/A,,Clear,90,2013-05-04 11:53:00
7:53 AM,60.1,54.0,80,29.90,10.0,ESE,11.5,-,N/A,,Mostly Cloudy,110,2013-05-04 12:53:00
8:53 AM,62.1,54.0,75,29.91,10.0,ESE,13.8,-,N/A,,Partly Cloudy,110,2013-05-04 13:53:00
9:53 AM,62.1,53.1,72,29.93,10.0,ESE,12.7,-,0.00,Rain,Light Rain,110,2013-05-04 14:53:00
10:53 AM,62.1,53.1,72,29.93,10.0,East,10.4,-,0.00,Rain,Light Rain,100,2013-05-04 15:53:00
11:53 AM,60.1,53.1,78,29.94,9.0,ESE,11.5,-,0.01,Rain,Light Rain,110,2013-05-04 16:53:00
12:53 PM,59.0,53.1,81,29.94,10.0,ESE,15.0,-,0.01,,Overcast,110,2013-05-04 17:53:00
1:53 PM,59.0,55.0,87,29.95,7.0,ESE,15.0,-,0.01,Rain,Light Rain,110,2013-05-04 18:53:00
2:53 PM,59.0,55.0,87,29.96,8.0,ESE,17.3,-,0.02,Rain,Light Rain,110,2013-05-04 19:53:00
3:05 PM,59.0,55.4,88,29.96,8.0,ESE,17.3,-,0.01,Rain,Light Rain,110,2013-05-04 20:05:00
3:14 PM,59.0,55.4,88,29.96,7.0,ESE,15.0,-,0.01,Rain,Light Rain,110,2013-05-04 20:14:00
3:53 PM,59.0,55.0,87,29.95,9.0,ESE,17.3,-,0.02,Rain,Light Rain,120,2013-05-04 20:53:00
4:17 PM,60.8,55.4,82,29.95,10.0,ESE,16.1,-,0.00,Rain,Light Rain,120,2013-05-04 21:17:00
4:32 PM,60.8,55.4,82,29.96,10.0,ESE,13.8,-,0.00,,Overcast,110,2013-05-04 21:32:00
4:53 PM,59.0,55.0,87,29.96,10.0,ESE,16.1,-,0.01,Rain,Light Rain,120,2013-05-04 21:53:00
5:37 PM,57.2,53.6,88,29.97,10.0,SE,11.5,-,0.00,Rain,Light Rain,130,2013-05-04 22:37:00
5:53 PM,57.9,53.1,84,29.98,10.0,SE,16.1,-,0.00,,Overcast,140,2013-05-04 22:53:00
6:02 PM,57.2,53.6,88,29.98,10.0,SE,12.7,-,0.00,Rain,Light Rain,140,2013-05-04 23:02:00
6:53 PM,57.0,54.0,89,30.00,6.0,SE,11.5,-,0.01,Rain,Light Rain,140,2013-05-04 23:53:00
7:05 PM,57.2,53.6,88,30.00,10.0,SE,10.4,-,0.00,Rain,Light Rain,140,2013-05-05 00:05:00
7:53 PM,55.9,53.1,90,30.01,10.0,ESE,10.4,-,0.01,Rain,Light Rain,120,2013-05-05 00:53:00
8:00 PM,55.4,53.6,94,30.01,10.0,ESE,11.5,-,0.00,Rain,Light Rain,110,2013-05-05 01:00:00
8:53 PM,55.0,53.1,93,30.01,10.0,East,5.8,-,0.01,,Overcast,90,2013-05-05 01:53:00
9:53 PM,55.0,53.1,93,30.01,10.0,Calm,Calm,-,N/A,,Mostly Cloudy,0,2013-05-05 02:53:00
10:53 PM,55.0,52.0,89,30.01,10.0,SSE,4.6,-,N/A,,Overcast,160,2013-05-05 03:53:00
11:53 PM,54.0,52.0,93,30.01,10.0,Calm,Calm,-,0.00,Rain,Light Rain,0,2013-05-05 04:53:00